User: anonymous   Login
Location: Palomar Mountain Lodge
(33.3110°N, 116.8495°W)
Time: 13:50:57
(UTC-07:00)
Language:

COSMOS 2487 - Orbit

View from above orbital plane
View from above orbital plane
View from above satellite
View from above satellite

Ground track
Ground track

The orbit data is extracted from the following two-line orbital elements,

1 39194U 13032A   19292.27902151  .00002455  00000-0  63177-4 0  9999
2 39194  74.7118 185.8924 0002342 175.2925 184.8309 15.39802249352786
Epoch (UTC): 19 October 2019 06:41:47
Eccentricity: 0.0002342
inclination: 74.7118°
perigee height: 445 km
apogee height: 448 km
right ascension of ascending node: 185.8924°
argument of perigee: 175.2925°
revolutions per day: 15.39802249
mean anomaly at epoch: 184.8309°
orbit number at epoch: 35278

The dashed part of the orbit path shows where the satellite is in the earth's shadow,  

DLR